Miscellaneous Local Product
Issued by NWS Hastings, NE

Current Version | Previous Version | Text Only | Print | Product List | Glossary On
Versions: 1 2 3 4 5 6 7 8 9 10 11 12 13 14 15 16 17 18 19 20 21 22 23 24 25 26 27 28 29 30 31 32 33 34 35 36 37 38 39 40 41 42 43 44 45 46 47 48 49 50
118
AXUS43 KGID 280302
MISGRI

GID CWA HOURLY WEATHER ROUNDUP
NATIONAL WEATHER SERVICE HASTINGS NE
1000 PM CDT SUN MAY 27 2018

NOTE: "FAIR" INDICATES FEW OR NO CLOUDS BELOW 12,000 FEET WITH NO
SIGNIFICANT WEATHER AND/OR OBSTRUCTIONS TO VISIBILITY.

...SOUTH CENTRAL NEBRASKA...

CITY           SKY/WX    TMP DP  RH WIND       PRES   REMARKS
GRAND ISLAND   CLOUDY    81  55  40 S9        29.88R
KEARNEY        MOCLDY    80  55  42 S12       29.88R
HASTINGS       MOCLDY    82  53  36 S8        29.88R
ORD            CLOUDY    81  52  36 S12       29.85R
YORK           PTCLDY    84  55  37 S12       29.88R
AURORA         CLOUDY    82  55  38 S9        29.89R
LEXINGTON      CLOUDY    80  54  40 SE8       29.88R
HOLDREGE       CLOUDY    79  54  41 SE12      29.86R
HEBRON         CLOUDY    83  59  44 S6        29.88R

...NEBRASKA PANHANDLE...

CITY           SKY/WX    TMP DP  RH WIND       PRES   REMARKS
CHADRON        TSTM      57  56  96 NW12      30.04R FOG
ALLIANCE       LGT RAIN  59  57  93 NW17G30   30.01F
SCOTTSBLUFF    CLOUDY    63  59  87 N17G47    29.85F
SIDNEY         CLOUDY    60  53  77 E15       29.99R

...WESTERN AND NORTH CENTRAL NEBRASKA...

CITY           SKY/WX    TMP DP  RH WIND       PRES   REMARKS
VALENTINE      CLOUDY    75  56  51 NE7       29.89R
AINSWORTH      CLOUDY    72  58  60 E5        29.92R
ONEILL         CLOUDY    79  59  49 SW7       29.88R
BROKEN BOW     CLOUDY    77  57  50 W5        29.89R
IMPERIAL       TSTM      64  59  83 E6        29.97F
NORTH PLATTE   LGT RAIN  69  59  70 W22G36    29.97S
MCCOOK         CLOUDY    73  58  59 N23G38    29.87R

...EASTERN NEBRASKA...

CITY           SKY/WX    TMP DP  RH WIND       PRES   REMARKS
NORFOLK        CLOUDY    84  57  39 S13       29.83R
SO SIOUX CITY  MOCLDY    82  58  43 S7        29.79F
TEKAMAH        CLEAR     79  60  52 S8        29.81F
COLUMBUS       CLEAR     83  60  45 S7        29.86R
ALBION         PTCLDY    82  55  38 S8        29.87R
OMAHA EPPLEY   MOCLDY    84  64  50 SE6       29.83R
OFFUTT AFB     PTCLDY    76  67  73 SE5       29.84R
MILLARD        PTCLDY    82  66  60 CALM      29.84S
LINCOLN        PTCLDY    81  59  47 S7        29.86R
NEBRASKA CITY  CLOUDY    82  61  49 S6        29.87R
BEATRICE       CLOUDY    84  62  46 S8        29.87R
FALLS CITY     CLOUDY    84  65  52 S5        29.86R

...NORTHERN KANSAS...

CITY           SKY/WX    TMP DP  RH WIND       PRES   REMARKS
GOODLAND       CLOUDY    80  61  52 SE23G40   29.82R THUNDER HAZE
HILL CITY      CLOUDY    80  59  48 SE9       29.85R
NORTON         CLEAR     81  55  41 SE12G18   29.85R
PHILLIPSBURG   CLEAR     75  55  50 E7        29.87R
SMITH CENTER   CLEAR     79  55  44 SE10      29.87R
HAYS           PTCLDY    77  59  53 SE10      29.86R
RUSSELL        CLOUDY    76  62  62 SE13      29.85R
CONCORDIA      CLOUDY    80  61  52 SE12      29.87R
SALINA         CLOUDY    83  64  52 SE14      29.87R
TOPEKA         PTCLDY    80  71  74 CALM      29.88R



USA.gov is the U.S. government's official web portal to all federal, state and local government web resources and services.